Location: Bakov nad Jizerou
(50.4784°N, 14.9394°E)
Time: 03:02:01
(UTC+00:00)

Cosmos 1727 Rocket - Pass Details

Date: 24 October 2021
Orbit: 960 x 997 km, 82.9° (Epoch: 07 December)

Event Time Altitude Azimuth Distance (km) Brightness Sun altitude
Rises 03:50:43 0° 145° (SE) 3,698 7.5 -17.6°
Reaches altitude 10° 03:53:44 10° 131° (SE) 2,749 7.0 -17.1°
Maximum altitude 03:58:32 24° 81° (E) 1,941 6.5 -16.4°
Drops below altitude 10° 04:03:19 10° 32° (NNE) 2,745 6.8 -15.6°
Sets 04:06:19 0° 19° (NNE) 3,692 7.3 -15.1°
